This is the latest recevied weather packets stored in our database for station/object I3RKE-10. If no packets are shown the sender has not sent any weather packets the latest 10 day(s).
| Time | Temp. | Humidity | Pressure | Rain* | Wind** | Luminosity | Snow |
|---|---|---|---|---|---|---|---|
| 1777999320 | 14.44° C | 85% | 1007.5 hPa | - | - | - | - |
| 1777998420 | 14.44° C | 84% | 1007.5 hPa | - | - | - | - |
| 1777997520 | 14.44° C | 86% | 1007.6 hPa | - | - | - | - |
| 1777996620 | 14.44° C | 85% | 1007.7 hPa | - | - | - | - |
| 1777995720 | 14.44° C | 84% | 1007.7 hPa | - | - | - | - |
| 1777994820 | 15° C | 84% | 1007.7 hPa | - | - | - | - |
| 1777993952 | 15° C | 82% | 1007.7 hPa | - | - | - | - |
| 1777993919 | 15° C | 82% | 1007.7 hPa | - | - | - | - |
| 1777993019 | 15° C | 82% | 1007.6 hPa | - | - | - | - |
| 1777992119 | 15° C | 82% | 1007.7 hPa | - | - | - | - |
| 1777991219 | 14.44° C | 82% | 1007.9 hPa | - | - | - | - |
| 1777989419 | 15° C | 79% | 1008.1 hPa | - | - | - | - |
| 1777988519 | 15.56° C | 79% | 1008.3 hPa | - | - | - | - |
| 1777987619 | 15° C | 77% | 1008.5 hPa | - | - | - | - |
| 1777986719 | 15.56° C | 76% | 1008.6 hPa | - | - | - | - |
| 1777985819 | 15.56° C | 74% | 1008.7 hPa | - | - | - | - |
| 1777984918 | 16.11° C | 76% | 1008.7 hPa | - | - | - | - |
| 1777984018 | 16.11° C | 72% | 1008.7 hPa | - | - | - | - |
| 1777983118 | 16.67° C | 71% | 1008.6 hPa | - | - | - | - |
| 1777982218 | 17.78° C | 67% | 1008.3 hPa | - | - | - | - |
| 1777981318 | 18.33° C | 64% | 1008.4 hPa | - | - | - | - |
| 1777980490 | 18.33° C | 63% | 1008.5 hPa | - | - | - | - |
| 1777980418 | 18.33° C | 63% | 1008.5 hPa | - | - | - | - |
| 1777979518 | 18.89° C | 61% | 1008.5 hPa | - | - | - | - |
| 1777978618 | 18.33° C | 72% | 1008.6 hPa | - | - | - | - |
* Rain since midnight (hover to see other rain measurements)
** Current wind speed in m/s (hover to see current wind gust speed)